When you browse on this site, cookies collect data to enhance your experience and personalize the content and advertising you see.
Visit our Privacy Policy to learn more. By continuing to use the site, you agree to this use of cookies and data.
  • In Hungary
  • List of Countries
  • For 7 days
  • Water Temperature
  • Satellite Maps
  • Weather Map
  • News
  • Weather Widgets
  • user-avatar
    Login

    Hourly Weather Weinstadt-Endersbach

    Today, 16 February, Saturday

    Time Temperature Precipitation Wind Pressure Humidity
    00:00 +4°C° 0 mm 2 mps 746 mmHg 76%
    01:00 +5°C° 0 mm 1 mps 746 mmHg 75%
    02:00 +5°C° 0 mm 1 mps 746 mmHg 74%
    03:00 +5°C° 0 mm 1 mps 746 mmHg 73%
    04:00 +4°C° 0 mm 1 mps 746 mmHg 72%
    05:00 +4°C° 0 mm 1 mps 746 mmHg 72%
    06:00 +4°C° 0 mm 1 mps 746 mmHg 72%
    07:00 +3°C° 0 mm 1 mps 746 mmHg 69%
    08:00 +5°C° 0 mm 1 mps 746 mmHg 67%
    09:00 +6°C° 0 mm 1 mps 746 mmHg 64%
    10:00 +8°C° 0 mm 1 mps 746 mmHg 62%
    11:00 +10°C° 0 mm 1 mps 746 mmHg 57%
    12:00 +12°C° 0 mm 1 mps 746 mmHg 51%
    13:00 +14°C° 0 mm 1 mps 745 mmHg 46%
    14:00 +13°C° 0 mm 0 mps 745 mmHg 49%
    15:00 +13°C° 0 mm 0 mps 745 mmHg 51%
    16:00 +13°C° 0 mm 0 mps 744 mmHg 54%
    17:00 +11°C° 0 mm 0 mps 745 mmHg 58%
    18:00 +10°C° 0 mm 1 mps 745 mmHg 62%
    19:00 +9°C° 0 mm 1 mps 745 mmHg 67%
    20:00 +8°C° 0 mm 1 mps 745 mmHg 68%
    21:00 +8°C° 0 mm 1 mps 745 mmHg 69%
    22:00 +7°C° 0 mm 1 mps 745 mmHg 69%
    23:00 +7°C° 0 mm 1 mps 745 mmHg 68%

    Tomorrow, 17 February, Sunday

    Time Temperature Precipitation Wind Pressure Humidity
    00:00 +7°C° 0 mm 1 mps 745 mmHg 66%
    01:00 +6°C° 0 mm 1 mps 745 mmHg 65%
    02:00 +6°C° 0 mm 1 mps 744 mmHg 64%
    03:00 +6°C° 0 mm 1 mps 744 mmHg 63%
    04:00 +5°C° 0 mm 1 mps 744 mmHg 62%
    05:00 +5°C° 0 mm 1 mps 744 mmHg 61%
    06:00 +5°C° 0 mm 1 mps 744 mmHg 61%
    07:00 +5°C° 0 mm 1 mps 744 mmHg 61%
    08:00 +6°C° 0 mm 1 mps 744 mmHg 59%
    09:00 +8°C° 0 mm 1 mps 744 mmHg 57%
    10:00 +9°C° 0 mm 1 mps 744 mmHg 55%
    11:00 +11°C° 0 mm 1 mps 743 mmHg 51%
    12:00 +13°C° 0 mm 1 mps 743 mmHg 47%
    13:00 +15°C° 0 mm 1 mps 743 mmHg 42%
    14:00 +15°C° 0 mm 1 mps 742 mmHg 46%
    15:00 +15°C° 0 mm 1 mps 742 mmHg 49%
    16:00 +15°C° 0 mm 1 mps 742 mmHg 53%
    17:00 +13°C° 0 mm 1 mps 742 mmHg 57%
    18:00 +11°C° 0 mm 1 mps 742 mmHg 60%
    19:00 +8°C° 0 mm 2 mps 742 mmHg 64%
    20:00 +9°C° 0 mm 1 mps 742 mmHg 63%
    21:00 +8°C° 0 mm 1 mps 742 mmHg 61%
    22:00 +8°C° 0 mm 1 mps 742 mmHg 60%
    23:00 +7°C° 0 mm 1 mps 742 mmHg 58%

    Day after tomorrow, 18 February, Monday

    Time Temperature Precipitation Wind Pressure Humidity
    00:00 +7°C° 0 mm 1 mps 742 mmHg 56%
    01:00 +6°C° 0 mm 1 mps 742 mmHg 54%
    02:00 +6°C° 0 mm 1 mps 741 mmHg 53%
    03:00 +6°C° 0 mm 1 mps 741 mmHg 53%
    04:00 +6°C° 0 mm 1 mps 741 mmHg 53%
    05:00 +5°C° 0 mm 1 mps 741 mmHg 53%
    06:00 +5°C° 0 mm 1 mps 741 mmHg 53%
    07:00 +5°C° 0 mm 1 mps 741 mmHg 54%
    08:00 +7°C° 0 mm 1 mps 741 mmHg 53%
    09:00 +8°C° 0 mm 1 mps 741 mmHg 52%
    10:00 +9°C° 0 mm 1 mps 741 mmHg 51%
    11:00 +11°C° 0 mm 1 mps 740 mmHg 48%
    12:00 +13°C° 0 mm 1 mps 740 mmHg 44%
    13:00 +14°C° 0 mm 1 mps 740 mmHg 41%
    14:00 +14°C° 0 mm 1 mps 740 mmHg 43%
    15:00 +14°C° 0 mm 1 mps 739 mmHg 46%
    16:00 +14°C° 0 mm 1 mps 739 mmHg 48%
    17:00 +12°C° 0 mm 1 mps 739 mmHg 53%
    18:00 +11°C° 0 mm 1 mps 739 mmHg 58%
    19:00 +8°C° 0 mm 2 mps 739 mmHg 64%
    20:00 +7°C° 0 mm 2 mps 739 mmHg 65%
    21:00 +7°C° 0 mm 2 mps 739 mmHg 67%
    22:00 +6°C° 0 mm 2 mps 739 mmHg 68%
    23:00 +6°C° 0 mm 2 mps 739 mmHg 67%

    19 February, Tuesday

    Time Temperature Precipitation Wind Pressure Humidity
    00:00 +5°C° 0 mm 2 mps 739 mmHg 67%
    01:00 +5°C° 0 mm 2 mps 739 mmHg 66%
    02:00 +5°C° 0 mm 2 mps 739 mmHg 67%
    03:00 +5°C° 0 mm 2 mps 739 mmHg 69%
    04:00 +4°C° 0 mm 2 mps 739 mmHg 70%
    05:00 +4°C° 0 mm 2 mps 739 mmHg 71%
    06:00 +4°C° 0 mm 2 mps 739 mmHg 73%
    07:00 +4°C° 0 mm 2 mps 739 mmHg 74%
    08:00 +6°C° 0 mm 2 mps 740 mmHg 71%
    09:00 +7°C° 0 mm 3 mps 740 mmHg 69%
    10:00 +8°C° 0 mm 3 mps 740 mmHg 67%
    11:00 +9°C° 0 mm 3 mps 740 mmHg 66%
    12:00 +10°C° 0 mm 3 mps 740 mmHg 66%
    13:00 +12°C° 0 mm 3 mps 740 mmHg 66%
    14:00 +11°C° 0.1 mm 3 mps 740 mmHg 70%
    15:00 +10°C° 0.1 mm 3 mps 740 mmHg 74%
    16:00 +9°C° 0.1 mm 2 mps 740 mmHg 79%
    17:00 +9°C° 0 mm 2 mps 740 mmHg 82%
    18:00 +8°C° 0 mm 2 mps 740 mmHg 85%
    19:00 +8°C° 0 mm 1 mps 740 mmHg 88%
    20:00 +8°C° 0 mm 1 mps 741 mmHg 90%
    21:00 +7°C° 0 mm 1 mps 741 mmHg 91%
    22:00 +7°C° 0 mm 1 mps 741 mmHg 93%
    23:00 +6°C° 0 mm 1 mps 741 mmHg 93%

    20 February, Wednesday

    Time Temperature Precipitation Wind Pressure Humidity
    00:00 +6°C° 0 mm 1 mps 741 mmHg 93%
    01:00 +6°C° 0 mm 1 mps 741 mmHg 93%
    02:00 +5°C° 0 mm 1 mps 741 mmHg 93%
    03:00 +5°C° 0 mm 1 mps 741 mmHg 93%
    04:00 +5°C° 0 mm 1 mps 741 mmHg 93%
    05:00 +5°C° 0 mm 1 mps 741 mmHg 92%
    06:00 +5°C° 0 mm 1 mps 741 mmHg 92%
    07:00 +4°C° 0 mm 1 mps 742 mmHg 92%
    08:00 +6°C° 0 mm 1 mps 742 mmHg 88%
    09:00 +7°C° 0 mm 1 mps 742 mmHg 84%
    10:00 +8°C° 0 mm 1 mps 742 mmHg 79%
    11:00 +10°C° 0 mm 1 mps 742 mmHg 75%
    12:00 +10°C° 0 mm 2 mps 742 mmHg 70%
    13:00 +12°C° 0 mm 2 mps 742 mmHg 65%
    14:00 +12°C° 0 mm 2 mps 742 mmHg 66%
    15:00 +12°C° 0 mm 2 mps 742 mmHg 66%
    16:00 +12°C° 0 mm 2 mps 742 mmHg 66%
    17:00 +11°C° 0 mm 1 mps 742 mmHg 72%
    18:00 +9°C° 0 mm 1 mps 742 mmHg 78%
    19:00 +7°C° 0 mm 0 mps 742 mmHg 84%
    20:00 +7°C° 0 mm 0 mps 743 mmHg 85%
    21:00 +7°C° 0 mm 1 mps 743 mmHg 86%
    22:00 +7°C° 0 mm 1 mps 743 mmHg 87%
    23:00 +7°C° 0 mm 1 mps 743 mmHg 87%

    21 February, Thursday

    Time Temperature Precipitation Wind Pressure Humidity
    00:00 +7°C° 0 mm 1 mps 743 mmHg 87%
    01:00 +7°C° 0 mm 1 mps 743 mmHg 87%
    02:00 +7°C° 0 mm 1 mps 743 mmHg 86%
    03:00 +7°C° 0 mm 1 mps 743 mmHg 85%
    04:00 +7°C° 0 mm 1 mps 743 mmHg 84%
    05:00 +7°C° 0 mm 1 mps 743 mmHg 84%
    06:00 +7°C° 0 mm 1 mps 743 mmHg 83%
    07:00 +7°C° 0 mm 1 mps 743 mmHg 83%
    08:00 +8°C° 0 mm 1 mps 744 mmHg 79%
    09:00 +9°C° 0 mm 1 mps 744 mmHg 75%
    10:00 +10°C° 0 mm 1 mps 744 mmHg 71%
    11:00 +10°C° 0 mm 2 mps 744 mmHg 69%
    12:00 +12°C° 0 mm 2 mps 744 mmHg 66%
    13:00 +13°C° 0 mm 2 mps 744 mmHg 64%
    14:00 +13°C° 0 mm 2 mps 743 mmHg 64%
    15:00 +13°C° 0 mm 2 mps 743 mmHg 64%
    16:00 +13°C° 0 mm 2 mps 743 mmHg 64%
    17:00 +12°C° 0 mm 2 mps 743 mmHg 71%
    18:00 +10°C° 0 mm 1 mps 744 mmHg 78%
    19:00 +9°C° 0 mm 1 mps 744 mmHg 85%
    20:00 +9°C° 0 mm 1 mps 744 mmHg 87%
    21:00 +8°C° 0 mm 1 mps 745 mmHg 88%
    22:00 +8°C° 0 mm 1 mps 745 mmHg 89%
    23:00 +8°C° 0 mm 1 mps 745 mmHg 89%
    Show more